Time,TemperatureF,DewpointF,PressureIn,WindDirection,WindDirectionDegrees,WindSpeedMPH,WindSpeedGustMPH,Humidity,HourlyPrecipIn,Conditions,Clouds,dailyrainin,SoftwareType,DateUTC
2013-09-22 00:00:00,69.2,65.2,29.72,ENE,78,1.0,2.0,87,0.00,,,0.00,WeatherCatV1.15B25,2013-09-22 04:00:00,
2013-09-22 00:01:00,69.2,65.2,29.72,ENE,57,0.0,2.0,87,0.00,,,0.00,WeatherCatV1.15B25,2013-09-22 04:01:00,
2013-09-22 00:02:00,69.2,65.2,29.72,North,356,0.0,2.0,87,0.00,,,0.00,WeatherCatV1.15B25,2013-09-22 04:02:00,
2013-09-22 00:04:00,69.3,65.3,29.72,NNW,341,0.0,2.0,87,0.00,,,0.00,WeatherCatV1.15B25,2013-09-22 04:04:00,
2013-09-22 00:09:00,69.4,65.4,29.72,SW,215,0.0,2.0,87,0.00,,,0.00,WeatherCatV1.15B25,2013-09-22 04:09:00,
2013-09-22 00:14:00,69.5,65.5,29.72,NNW,342,1.0,2.0,87,0.00,,,0.00,WeatherCatV1.15B25,2013-09-22 04:14:00,
2013-09-22 00:19:00,69.6,65.6,29.71,WNW,293,1.0,2.0,87,0.00,,,0.00,WeatherCatV1.15B25,2013-09-22 04:19:00,
2013-09-22 00:24:00,69.5,65.5,29.71,WNW,285,0.0,2.0,87,0.00,,,0.00,WeatherCatV1.15B25,2013-09-22 04:24:00,
2013-09-22 00:29:00,69.5,65.5,29.71,ESE,103,0.0,1.0,87,0.00,,,0.00,WeatherCatV1.15B25,2013-09-22 04:29:00,
2013-09-22 00:34:00,69.6,65.6,29.71,NE,54,0.0,2.0,87,0.00,,,0.00,WeatherCatV1.15B25,2013-09-22 04:34:00,
2013-09-22 00:39:00,69.6,65.6,29.70,East,101,0.0,2.0,87,0.00,,,0.00,WeatherCatV1.15B25,2013-09-22 04:39:00,
2013-09-22 00:44:00,69.5,65.5,29.70,NE,48,1.0,1.0,87,0.00,,,0.00,WeatherCatV1.15B25,2013-09-22 04:44:00,
2013-09-22 00:49:00,69.6,65.6,29.70,ENE,68,1.0,3.0,87,0.00,,,0.00,WeatherCatV1.15B25,2013-09-22 04:49:00,
2013-09-22 00:54:00,69.6,65.6,29.70,SW,216,0.0,1.0,87,0.00,,,0.00,WeatherCatV1.15B25,2013-09-22 04:54:00,
2013-09-22 00:59:00,69.6,65.6,29.69,ESE,122,0.0,1.0,87,0.00,,,0.00,WeatherCatV1.15B25,2013-09-22 04:59:00,
2013-09-22 01:04:00,69.6,65.6,29.69,NE,53,0.0,1.0,87,0.00,,,0.00,WeatherCatV1.15B25,2013-09-22 05:04:00,
2013-09-22 01:09:00,69.6,65.6,29.69,East,84,0.0,3.0,87,0.00,,,0.00,WeatherCatV1.15B25,2013-09-22 05:09:00,
2013-09-22 01:14:00,69.6,65.6,29.68,NNW,348,0.0,2.0,87,0.00,,,0.00,WeatherCatV1.15B25,2013-09-22 05:14:00,
2013-09-22 01:19:00,69.6,65.6,29.68,ESE,108,4.0,4.0,87,0.00,,,0.00,WeatherCatV1.15B25,2013-09-22 05:19:00,
2013-09-22 01:24:00,69.6,65.6,29.68,ENE,59,1.0,2.0,87,0.00,,,0.00,WeatherCatV1.15B25,2013-09-22 05:24:00,
2013-09-22 01:29:00,69.7,65.6,29.68,NNE,26,1.0,2.0,87,0.00,,,0.00,WeatherCatV1.15B25,2013-09-22 05:29:00,
2013-09-22 01:34:00,69.7,65.6,29.68,SE,131,4.0,5.0,87,0.00,,,0.00,WeatherCatV1.15B25,2013-09-22 05:34:00,
2013-09-22 01:39:00,69.9,65.8,29.67,ENE,60,0.0,7.0,87,0.00,,,0.00,WeatherCatV1.15B25,2013-09-22 05:39:00,
2013-09-22 01:44:00,70.0,65.9,29.67,ESE,111,0.0,4.0,87,0.00,,,0.00,WeatherCatV1.15B25,2013-09-22 05:44:00,
2013-09-22 01:49:00,70.1,65.7,29.67,SE,143,3.0,3.0,86,0.00,,,0.00,WeatherCatV1.15B25,2013-09-22 05:49:00,
2013-09-22 01:54:00,70.0,65.6,29.66,ESE,115,0.0,2.0,86,0.00,,,0.00,WeatherCatV1.15B25,2013-09-22 05:54:00,
2013-09-22 01:59:00,70.1,65.7,29.66,North,4,0.0,3.0,86,0.00,,,0.00,WeatherCatV1.15B25,2013-09-22 05:59:00,
2013-09-22 02:04:00,70.1,65.7,29.66,SE,141,4.0,5.0,86,0.00,,,0.00,WeatherCatV1.15B25,2013-09-22 06:04:00,
2013-09-22 02:09:00,70.2,65.8,29.66,ENE,74,0.0,4.0,86,0.00,,,0.00,WeatherCatV1.15B25,2013-09-22 06:09:00,
2013-09-22 02:14:00,70.3,65.9,29.66,North,4,1.0,2.0,86,0.00,,,0.00,WeatherCatV1.15B25,2013-09-22 06:14:00,
2013-09-22 02:19:00,70.3,65.9,29.66,East,98,6.0,8.0,86,0.00,,,0.00,WeatherCatV1.15B25,2013-09-22 06:19:00,
2013-09-22 02:24:00,70.4,65.7,29.65,NNE,12,1.0,9.0,85,0.00,,,0.00,WeatherCatV1.15B25,2013-09-22 06:24:00,
2013-09-22 02:29:00,70.3,65.6,29.65,ENE,58,1.0,7.0,85,0.00,,,0.00,WeatherCatV1.15B25,2013-09-22 06:29:00,
2013-09-22 02:34:00,70.3,65.6,29.65,North,4,0.0,4.0,85,0.00,,,0.00,WeatherCatV1.15B25,2013-09-22 06:34:00,
2013-09-22 02:39:00,70.3,65.6,29.65,NNW,330,1.0,1.0,85,0.00,,,0.00,WeatherCatV1.15B25,2013-09-22 06:39:00,
2013-09-22 02:44:00,70.3,65.6,29.64,ESE,106,5.0,8.0,85,0.00,,,0.00,WeatherCatV1.15B25,2013-09-22 06:44:00,
2013-09-22 02:49:00,70.3,65.6,29.64,ESE,110,3.0,9.0,85,0.00,,,0.00,WeatherCatV1.15B25,2013-09-22 06:49:00,
2013-09-22 02:54:00,70.3,65.6,29.64,North,352,1.0,6.0,85,0.00,,,0.00,WeatherCatV1.15B25,2013-09-22 06:54:00,
2013-09-22 02:59:00,70.3,65.6,29.64,SSE,155,0.0,10.0,85,0.00,,,0.00,WeatherCatV1.15B25,2013-09-22 06:59:00,
2013-09-22 03:04:00,70.3,65.6,29.64,SE,146,5.0,8.0,85,0.00,,,0.00,WeatherCatV1.15B25,2013-09-22 07:04:00,
2013-09-22 03:09:00,70.3,65.6,29.63,North,356,1.0,5.0,85,0.00,,,0.00,WeatherCatV1.15B25,2013-09-22 07:09:00,
2013-09-22 03:14:00,70.2,65.5,29.63,ESE,122,3.0,7.0,85,0.00,,,0.00,WeatherCatV1.15B25,2013-09-22 07:14:00,
2013-09-22 03:19:00,70.1,65.4,29.63,East,82,1.0,4.0,85,0.00,,,0.00,WeatherCatV1.15B25,2013-09-22 07:19:00,
2013-09-22 03:24:00,70.0,65.6,29.62,NNW,327,1.0,6.0,86,0.00,,,0.00,WeatherCatV1.15B25,2013-09-22 07:24:00,
2013-09-22 03:29:00,69.6,65.6,29.62,East,92,0.0,4.0,87,0.00,,,0.00,WeatherCatV1.15B25,2013-09-22 07:29:00,
2013-09-22 03:34:00,69.4,65.7,29.62,NE,35,2.0,4.0,88,0.00,,,0.00,WeatherCatV1.15B25,2013-09-22 07:34:00,
2013-09-22 03:39:00,69.1,65.7,29.62,ESE,119,2.0,6.0,89,0.00,,,0.00,WeatherCatV1.15B25,2013-09-22 07:39:00,
2013-09-22 03:44:00,69.0,65.9,29.62,East,89,2.0,7.0,90,0.00,,,0.00,WeatherCatV1.15B25,2013-09-22 07:44:00,
2013-09-22 03:49:00,69.0,65.9,29.62,SE,131,2.0,10.0,90,0.00,,,0.00,WeatherCatV1.15B25,2013-09-22 07:49:00,
2013-09-22 03:54:00,69.0,65.9,29.61,ENE,63,2.0,3.0,90,0.00,,,0.00,WeatherCatV1.15B25,2013-09-22 07:54:00,
2013-09-22 03:59:00,69.0,65.9,29.61,NNE,14,2.0,4.0,90,0.00,,,0.00,WeatherCatV1.15B25,2013-09-22 07:59:00,
2013-09-22 04:04:00,69.1,66.0,29.61,ESE,109,0.0,2.0,90,0.00,,,0.00,WeatherCatV1.15B25,2013-09-22 08:04:00,
2013-09-22 04:09:00,69.1,66.0,29.61,WNW,301,1.0,5.0,90,0.00,,,0.00,WeatherCatV1.15B25,2013-09-22 08:09:00,
2013-09-22 04:14:00,69.2,66.1,29.61,SE,133,1.0,9.0,90,0.00,,,0.00,WeatherCatV1.15B25,2013-09-22 08:14:00,
2013-09-22 04:19:00,69.3,66.2,29.60,ESE,116,0.0,2.0,90,0.00,,,0.00,WeatherCatV1.15B25,2013-09-22 08:19:00,
2013-09-22 04:24:00,69.4,66.3,29.60,NE,51,3.0,5.0,90,0.00,,,0.00,WeatherCatV1.15B25,2013-09-22 08:24:00,
2013-09-22 04:29:00,69.5,66.4,29.60,East,94,1.0,1.0,90,0.00,,,0.00,WeatherCatV1.15B25,2013-09-22 08:29:00,
2013-09-22 04:34:00,69.7,66.6,29.60,NE,36,0.0,8.0,90,0.00,,,0.00,WeatherCatV1.15B25,2013-09-22 08:34:00,
2013-09-22 04:39:00,69.8,66.7,29.60,ESE,102,1.0,4.0,90,0.00,,,0.00,WeatherCatV1.15B25,2013-09-22 08:39:00,
2013-09-22 04:44:00,69.8,66.7,29.59,NNE,19,1.0,8.0,90,0.00,,,0.00,WeatherCatV1.15B25,2013-09-22 08:44:00,
2013-09-22 04:49:00,69.7,66.6,29.60,NE,51,0.0,1.0,90,0.00,,,0.00,WeatherCatV1.15B25,2013-09-22 08:49:00,
2013-09-22 04:54:00,69.7,66.6,29.60,NE,38,1.0,3.0,90,0.00,,,0.00,WeatherCatV1.15B25,2013-09-22 08:54:00,
2013-09-22 04:59:00,69.8,66.7,29.60,East,89,2.0,2.0,90,0.00,,,0.00,WeatherCatV1.15B25,2013-09-22 08:59:00,
2013-09-22 05:04:00,69.9,66.8,29.60,NNW,343,1.0,5.0,90,0.00,,,0.00,WeatherCatV1.15B25,2013-09-22 09:04:00,
2013-09-22 05:09:00,70.0,66.9,29.59,SSW,210,1.0,4.0,90,0.00,,,0.00,WeatherCatV1.15B25,2013-09-22 09:09:00,
2013-09-22 05:14:00,69.9,66.8,29.59,NW,321,1.0,5.0,90,0.00,,,0.00,WeatherCatV1.15B25,2013-09-22 09:14:00,
2013-09-22 05:19:00,69.6,66.8,29.60,North,357,0.0,6.0,91,0.00,,,0.00,WeatherCatV1.15B25,2013-09-22 09:19:00,
2013-09-22 05:24:00,69.0,66.9,29.60,East,95,1.0,7.0,93,0.00,,,0.00,WeatherCatV1.15B25,2013-09-22 09:24:00,
2013-09-22 05:29:00,68.6,66.5,29.61,ENE,74,1.0,2.0,93,0.00,,,0.00,WeatherCatV1.15B25,2013-09-22 09:29:00,
2013-09-22 05:34:00,67.9,65.2,29.62,WNW,295,2.0,7.0,91,0.00,,,0.00,WeatherCatV1.15B25,2013-09-22 09:34:00,
2013-09-22 05:39:00,66.5,63.8,29.62,NW,325,1.0,3.0,91,0.00,,,0.00,WeatherCatV1.15B25,2013-09-22 09:39:00,
2013-09-22 05:44:00,65.3,62.6,29.63,ENE,65,0.0,4.0,91,0.00,,,0.00,WeatherCatV1.15B25,2013-09-22 09:44:00,
2013-09-22 05:49:00,64.6,62.2,29.63,WNW,294,1.0,2.0,92,0.00,,,0.00,WeatherCatV1.15B25,2013-09-22 09:49:00,
2013-09-22 05:54:00,64.0,61.6,29.63,West,269,1.0,2.0,92,0.00,,,0.00,WeatherCatV1.15B25,2013-09-22 09:54:00,
2013-09-22 05:59:00,63.5,61.1,29.64,WNW,288,2.0,2.0,92,0.00,,,0.00,WeatherCatV1.15B25,2013-09-22 09:59:00,
2013-09-22 06:04:00,63.1,61.0,29.64,WNW,291,2.0,2.0,93,0.00,,,0.00,WeatherCatV1.15B25,2013-09-22 10:04:00,
2013-09-22 06:09:00,62.7,60.6,29.64,WNW,285,2.0,3.0,93,0.00,,,0.00,WeatherCatV1.15B25,2013-09-22 10:09:00,
2013-09-22 06:14:00,62.4,60.3,29.64,SE,139,0.0,2.0,93,0.00,,,0.00,WeatherCatV1.15B25,2013-09-22 10:14:00,
2013-09-22 06:19:00,62.2,60.4,29.65,WNW,300,1.0,3.0,94,0.00,,,0.00,WeatherCatV1.15B25,2013-09-22 10:19:00,
2013-09-22 06:24:00,61.9,60.2,29.65,West,281,0.0,1.0,94,0.00,,,0.00,WeatherCatV1.15B25,2013-09-22 10:24:00,
2013-09-22 06:29:00,61.8,60.1,29.64,West,281,0.0,1.0,94,0.00,,,0.00,WeatherCatV1.15B25,2013-09-22 10:29:00,
2013-09-22 06:34:00,61.7,60.0,29.65,WNW,285,0.0,0.0,94,0.00,,,0.00,WeatherCatV1.15B25,2013-09-22 10:34:00,
2013-09-22 06:39:00,61.6,59.9,29.65,WNW,285,0.0,0.0,94,0.00,,,0.00,WeatherCatV1.15B25,2013-09-22 10:39:00,
2013-09-22 06:44:00,61.5,60.1,29.64,NW,322,0.0,1.0,95,0.00,,,0.00,WeatherCatV1.15B25,2013-09-22 10:44:00,
2013-09-22 06:49:00,61.5,60.1,29.64,WNW,284,1.0,1.0,95,0.00,,,0.00,WeatherCatV1.15B25,2013-09-22 10:49:00,
2013-09-22 06:54:00,61.5,60.1,29.65,WNW,302,0.0,2.0,95,0.00,,,0.00,WeatherCatV1.15B25,2013-09-22 10:54:00,
2013-09-22 06:59:00,61.5,60.1,29.65,WNW,302,0.0,0.0,95,0.00,,,0.00,WeatherCatV1.15B25,2013-09-22 10:59:00,
2013-09-22 07:04:00,61.4,60.0,29.66,NW,305,0.0,3.0,95,0.00,,,0.00,WeatherCatV1.15B25,2013-09-22 11:04:00,
2013-09-22 07:09:00,61.4,60.0,29.65,NNW,335,0.0,1.0,95,0.00,,,0.00,WeatherCatV1.15B25,2013-09-22 11:09:00,
2013-09-22 07:14:00,61.4,60.0,29.66,West,271,0.0,1.0,95,0.00,,,0.00,WeatherCatV1.15B25,2013-09-22 11:14:00,
2013-09-22 07:19:00,61.3,59.9,29.66,West,277,1.0,4.0,95,0.00,,,0.00,WeatherCatV1.15B25,2013-09-22 11:19:00,
2013-09-22 07:24:00,61.3,59.9,29.66,WNW,293,1.0,2.0,95,0.00,,,0.00,WeatherCatV1.15B25,2013-09-22 11:24:00,
2013-09-22 07:29:00,61.2,59.8,29.65,WNW,293,0.0,1.0,95,0.00,,,0.00,WeatherCatV1.15B25,2013-09-22 11:29:00,
2013-09-22 07:34:00,61.2,59.8,29.65,NW,322,0.0,2.0,95,0.00,,,0.00,WeatherCatV1.15B25,2013-09-22 11:34:00,
2013-09-22 07:39:00,61.1,59.7,29.66,NW,309,0.0,1.0,95,0.00,,,0.00,WeatherCatV1.15B25,2013-09-22 11:39:00,
2013-09-22 07:44:00,61.1,59.7,29.65,West,280,0.0,1.0,95,0.00,,,0.00,WeatherCatV1.15B25,2013-09-22 11:44:00,
2013-09-22 07:49:00,61.1,59.7,29.65,NNW,328,0.0,0.0,95,0.00,,,0.00,WeatherCatV1.15B25,2013-09-22 11:49:00,
2013-09-22 07:54:00,61.0,59.6,29.66,WNW,295,0.0,2.0,95,0.00,,,0.00,WeatherCatV1.15B25,2013-09-22 11:54:00,
2013-09-22 07:59:00,61.1,59.9,29.66,NW,325,1.0,1.0,96,0.00,,,0.00,WeatherCatV1.15B25,2013-09-22 11:59:00,
2013-09-22 08:04:00,61.1,59.9,29.66,NW,317,0.0,0.0,96,0.00,,,0.00,WeatherCatV1.15B25,2013-09-22 12:04:00,
2013-09-22 08:09:00,61.1,59.9,29.66,NW,317,0.0,0.0,96,0.00,,,0.00,WeatherCatV1.15B25,2013-09-22 12:09:00,
2013-09-22 08:14:00,61.1,59.9,29.66,NW,317,0.0,0.0,96,0.00,,,0.00,WeatherCatV1.15B25,2013-09-22 12:14:00,
2013-09-22 08:19:00,61.1,59.9,29.66,NW,317,0.0,0.0,96,0.00,,,0.00,WeatherCatV1.15B25,2013-09-22 12:19:00,
2013-09-22 08:24:00,61.1,59.9,29.66,North,352,1.0,2.0,96,0.00,,,0.00,WeatherCatV1.15B25,2013-09-22 12:24:00,
2013-09-22 08:29:00,61.1,59.9,29.66,ENE,67,0.0,1.0,96,0.00,,,0.00,WeatherCatV1.15B25,2013-09-22 12:29:00,
2013-09-22 08:34:00,61.2,60.0,29.66,ENE,67,0.0,0.0,96,0.00,,,0.00,WeatherCatV1.15B25,2013-09-22 12:34:00,
2013-09-22 08:39:00,61.3,60.1,29.67,ENE,65,0.0,1.0,96,0.00,,,0.00,WeatherCatV1.15B25,2013-09-22 12:39:00,
2013-09-22 08:44:00,61.3,60.1,29.66,ENE,65,0.0,0.0,96,0.00,,,0.00,WeatherCatV1.15B25,2013-09-22 12:44:00,
2013-09-22 08:49:00,61.3,59.9,29.67,WNW,293,0.0,1.0,95,0.00,,,0.00,WeatherCatV1.15B25,2013-09-22 12:49:00,
2013-09-22 08:54:00,61.3,60.1,29.67,WNW,286,0.0,1.0,96,0.00,,,0.00,WeatherCatV1.15B25,2013-09-22 12:54:00,
2013-09-22 08:59:00,61.5,60.3,29.67,WNW,290,1.0,1.0,96,0.00,,,0.00,WeatherCatV1.15B25,2013-09-22 12:59:00,
2013-09-22 09:04:00,61.4,60.0,29.67,NW,322,0.0,0.0,95,0.00,,,0.00,WeatherCatV1.15B25,2013-09-22 13:04:00,
2013-09-22 09:09:00,61.5,60.1,29.67,WSW,253,0.0,1.0,95,0.00,,,0.00,WeatherCatV1.15B25,2013-09-22 13:09:00,
2013-09-22 09:14:00,61.5,60.1,29.67,SSW,200,0.0,1.0,95,0.00,,,0.00,WeatherCatV1.15B25,2013-09-22 13:14:00,
2013-09-22 09:19:00,61.7,60.2,29.67,SSW,200,0.0,0.0,95,0.00,,,0.00,WeatherCatV1.15B25,2013-09-22 13:19:00,
2013-09-22 09:24:00,61.6,60.2,29.68,NW,304,0.0,1.0,95,0.00,,,0.00,WeatherCatV1.15B25,2013-09-22 13:24:00,
2013-09-22 09:29:00,61.6,60.2,29.68,NW,304,0.0,0.0,95,0.00,,,0.00,WeatherCatV1.15B25,2013-09-22 13:29:00,
2013-09-22 09:34:00,61.6,60.2,29.68,WNW,293,0.0,0.0,95,0.00,,,0.00,WeatherCatV1.15B25,2013-09-22 13:34:00,
2013-09-22 09:39:00,61.5,59.8,29.68,WNW,300,0.0,1.0,94,0.00,,,0.00,WeatherCatV1.15B25,2013-09-22 13:39:00,
2013-09-22 09:44:00,61.6,59.9,29.68,NW,324,1.0,2.0,94,0.00,,,0.00,WeatherCatV1.15B25,2013-09-22 13:44:00,
2013-09-22 09:49:00,61.6,59.9,29.68,West,272,0.0,2.0,94,0.00,,,0.00,WeatherCatV1.15B25,2013-09-22 13:49:00,
2013-09-22 09:54:00,61.5,59.8,29.68,NW,326,1.0,6.0,94,0.00,,,0.00,WeatherCatV1.15B25,2013-09-22 13:54:00,
2013-09-22 09:59:00,61.3,59.0,29.68,NW,306,3.0,5.0,92,0.00,,,0.00,WeatherCatV1.15B25,2013-09-22 13:59:00,
2013-09-22 10:04:00,61.1,58.4,29.68,NW,326,0.0,4.0,91,0.00,,,0.00,WeatherCatV1.15B25,2013-09-22 14:04:00,
2013-09-22 10:09:00,61.0,58.0,29.68,West,269,3.0,5.0,90,0.00,,,0.00,WeatherCatV1.15B25,2013-09-22 14:09:00,
2013-09-22 10:14:00,61.0,58.0,29.67,NNE,20,1.0,3.0,90,0.00,,,0.00,WeatherCatV1.15B25,2013-09-22 14:14:00,
2013-09-22 10:19:00,61.0,58.0,29.67,NNW,345,0.0,0.0,90,0.00,,,0.00,WeatherCatV1.15B25,2013-09-22 14:19:00,
2013-09-22 10:24:00,61.1,58.4,29.67,WNW,297,1.0,1.0,91,0.00,,,0.00,WeatherCatV1.15B25,2013-09-22 14:24:00,
2013-09-22 10:29:00,61.4,58.4,29.68,NNW,332,0.0,2.0,90,0.00,,,0.00,WeatherCatV1.15B25,2013-09-22 14:29:00,
2013-09-22 10:35:00,61.6,58.3,29.67,North,6,1.0,3.0,89,0.00,,,0.00,WeatherCatV1.15B25,2013-09-22 14:35:00,
2013-09-22 10:40:00,61.8,58.5,29.67,NNW,344,1.0,3.0,89,0.00,,,0.00,WeatherCatV1.15B25,2013-09-22 14:40:00,
2013-09-22 10:45:00,61.9,58.3,29.67,West,272,4.0,6.0,88,0.00,,,0.00,WeatherCatV1.15B25,2013-09-22 14:45:00,
2013-09-22 10:50:00,62.0,58.7,29.67,North,4,1.0,3.0,89,0.00,,,0.00,WeatherCatV1.15B25,2013-09-22 14:50:00,
2013-09-22 10:55:00,62.0,58.4,29.67,WNW,300,2.0,6.0,88,0.00,,,0.00,WeatherCatV1.15B25,2013-09-22 14:55:00,
2013-09-22 11:00:00,62.1,58.8,29.67,WNW,295,1.0,3.0,89,0.00,,,0.00,WeatherCatV1.15B25,2013-09-22 15:00:00,
2013-09-22 11:05:00,62.2,58.9,29.67,NNE,20,0.0,3.0,89,0.00,,,0.00,WeatherCatV1.15B25,2013-09-22 15:05:00,
2013-09-22 11:10:00,62.3,58.4,29.67,NW,306,4.0,4.0,87,0.00,,,0.00,WeatherCatV1.15B25,2013-09-22 15:10:00,
2013-09-22 11:15:00,62.3,58.4,29.67,NW,315,1.0,3.0,87,0.00,,,0.00,WeatherCatV1.15B25,2013-09-22 15:15:00,
2013-09-22 11:20:00,62.6,58.7,29.67,SSE,150,0.0,1.0,87,0.00,,,0.00,WeatherCatV1.15B25,2013-09-22 15:20:00,
2013-09-22 11:25:00,63.4,59.1,29.67,WNW,288,1.0,2.0,86,0.00,,,0.00,WeatherCatV1.15B25,2013-09-22 15:25:00,
2013-09-22 11:30:00,63.8,58.9,29.67,ESE,103,0.0,1.0,84,0.00,,,0.00,WeatherCatV1.15B25,2013-09-22 15:30:00,
2013-09-22 11:35:00,64.3,58.7,29.67,NW,309,1.0,2.0,82,0.00,,,0.00,WeatherCatV1.15B25,2013-09-22 15:35:00,
2013-09-22 11:40:00,64.9,58.9,29.68,West,262,1.0,2.0,81,0.00,,,0.00,WeatherCatV1.15B25,2013-09-22 15:40:00,
2013-09-22 11:45:00,65.3,59.3,29.68,SSW,193,0.0,1.0,81,0.00,,,0.00,WeatherCatV1.15B25,2013-09-22 15:45:00,
2013-09-22 11:50:00,65.6,59.3,29.68,NNW,336,0.0,3.0,80,0.00,,,0.00,WeatherCatV1.15B25,2013-09-22 15:50:00,
2013-09-22 11:55:00,66.0,59.3,29.67,NE,39,1.0,5.0,79,0.00,,,0.00,WeatherCatV1.15B25,2013-09-22 15:55:00,
2013-09-22 12:00:00,66.4,59.0,29.67,NNW,329,2.0,4.0,77,0.00,,,0.00,WeatherCatV1.15B25,2013-09-22 16:00:00,
2013-09-22 12:05:00,66.7,58.5,29.67,NNW,328,0.0,4.0,75,0.00,,,0.00,WeatherCatV1.15B25,2013-09-22 16:05:00,
2013-09-22 12:10:00,67.3,58.7,29.67,NE,41,2.0,4.0,74,0.00,,,0.00,WeatherCatV1.15B25,2013-09-22 16:10:00,
2013-09-22 12:15:00,67.5,57.4,29.67,WNW,291,5.0,7.0,70,0.00,,,0.00,WeatherCatV1.15B25,2013-09-22 16:15:00,
2013-09-22 12:20:00,67.9,57.3,29.67,WSW,257,0.0,4.0,69,0.00,,,0.00,WeatherCatV1.15B25,2013-09-22 16:20:00,
2013-09-22 12:25:00,68.5,57.5,29.67,NNW,345,0.0,5.0,68,0.00,,,0.00,WeatherCatV1.15B25,2013-09-22 16:25:00,
2013-09-22 12:30:00,68.6,58.0,29.67,NNW,328,1.0,2.0,69,0.00,,,0.00,WeatherCatV1.15B25,2013-09-22 16:30:00,
2013-09-22 12:35:00,68.5,55.8,29.67,NW,311,3.0,8.0,64,0.00,,,0.00,WeatherCatV1.15B25,2013-09-22 16:35:00,
2013-09-22 12:40:00,68.0,55.4,29.67,West,280,6.0,7.0,64,0.00,,,0.00,WeatherCatV1.15B25,2013-09-22 16:40:00,
2013-09-22 12:45:00,68.0,56.2,29.67,West,268,2.0,4.0,66,0.00,,,0.00,WeatherCatV1.15B25,2013-09-22 16:45:00,
2013-09-22 12:50:00,68.3,55.6,29.67,WNW,302,2.0,9.0,64,0.00,,,0.00,WeatherCatV1.15B25,2013-09-22 16:50:00,
2013-09-22 12:55:00,68.7,55.1,29.67,NW,312,1.0,2.0,62,0.00,,,0.00,WeatherCatV1.15B25,2013-09-22 16:55:00,
2013-09-22 13:00:00,68.8,54.3,29.67,NNW,337,3.0,4.0,60,0.00,,,0.00,WeatherCatV1.15B25,2013-09-22 17:00:00,
2013-09-22 13:05:00,69.0,55.4,29.67,North,352,2.0,2.0,62,0.00,,,0.00,WeatherCatV1.15B25,2013-09-22 17:05:00,
2013-09-22 13:10:00,69.1,55.5,29.66,NNW,347,2.0,4.0,62,0.00,,,0.00,WeatherCatV1.15B25,2013-09-22 17:10:00,
2013-09-22 13:15:00,69.3,55.7,29.66,NW,321,1.0,2.0,62,0.00,,,0.00,WeatherCatV1.15B25,2013-09-22 17:15:00,
2013-09-22 13:20:00,69.4,54.0,29.66,SW,220,2.0,7.0,58,0.00,,,0.00,WeatherCatV1.15B25,2013-09-22 17:20:00,
2013-09-22 13:25:00,69.5,55.0,29.66,NNW,331,0.0,0.0,60,0.00,,,0.00,WeatherCatV1.15B25,2013-09-22 17:25:00,
2013-09-22 13:30:00,69.8,55.7,29.66,WNW,287,0.0,4.0,61,0.00,,,0.00,WeatherCatV1.15B25,2013-09-22 17:30:00,
2013-09-22 13:35:00,69.3,53.9,29.66,WNW,303,5.0,12.0,58,0.00,,,0.00,WeatherCatV1.15B25,2013-09-22 17:35:00,
2013-09-22 13:40:00,68.8,53.9,29.66,West,281,4.0,8.0,59,0.00,,,0.00,WeatherCatV1.15B25,2013-09-22 17:40:00,
2013-09-22 13:45:00,69.1,53.7,29.66,ESE,122,0.0,4.0,58,0.00,,,0.00,WeatherCatV1.15B25,2013-09-22 17:45:00,
2013-09-22 13:50:00,68.8,53.4,29.66,NW,307,2.0,8.0,58,0.00,,,0.00,WeatherCatV1.15B25,2013-09-22 17:50:00,
2013-09-22 13:55:00,68.4,53.0,29.66,NNE,25,1.0,8.0,58,0.00,,,0.00,WeatherCatV1.15B25,2013-09-22 17:55:00,
2013-09-22 14:00:00,68.1,53.7,29.66,NNE,27,1.0,4.0,60,0.00,,,0.00,WeatherCatV1.15B25,2013-09-22 18:00:00,
2013-09-22 14:05:00,68.4,53.0,29.66,NE,38,1.0,5.0,58,0.00,,,0.00,WeatherCatV1.15B25,2013-09-22 18:05:00,
2013-09-22 14:10:00,68.3,52.9,29.67,NW,309,5.0,5.0,58,0.00,,,0.00,WeatherCatV1.15B25,2013-09-22 18:10:00,
2013-09-22 14:15:00,67.9,52.6,29.66,NNW,336,0.0,3.0,58,0.00,,,0.00,WeatherCatV1.15B25,2013-09-22 18:15:00,
2013-09-22 14:20:00,68.3,53.4,29.66,NNE,28,2.0,6.0,59,0.00,,,0.00,WeatherCatV1.15B25,2013-09-22 18:20:00,
2013-09-22 14:25:00,68.3,51.5,29.66,West,281,5.0,10.0,55,0.00,,,0.00,WeatherCatV1.15B25,2013-09-22 18:25:00,
2013-09-22 14:30:00,68.3,52.9,29.67,NW,313,2.0,8.0,58,0.00,,,0.00,WeatherCatV1.15B25,2013-09-22 18:30:00,
2013-09-22 14:35:00,68.6,51.3,29.66,NNW,335,8.0,8.0,54,0.00,,,0.00,WeatherCatV1.15B25,2013-09-22 18:35:00,
2013-09-22 14:40:00,68.4,51.6,29.67,West,264,4.0,4.0,55,0.00,,,0.00,WeatherCatV1.15B25,2013-09-22 18:40:00,
2013-09-22 14:45:00,68.4,52.1,29.67,WNW,295,3.0,4.0,56,0.00,,,0.00,WeatherCatV1.15B25,2013-09-22 18:45:00,
2013-09-22 14:50:00,68.6,52.3,29.67,NW,315,5.0,5.0,56,0.00,,,0.00,WeatherCatV1.15B25,2013-09-22 18:50:00,
2013-09-22 14:55:00,68.5,51.2,29.67,SSW,209,1.0,4.0,54,0.00,,,0.00,WeatherCatV1.15B25,2013-09-22 18:55:00,
2013-09-22 15:00:00,68.3,50.0,29.67,NW,322,4.0,11.0,52,0.00,,,0.00,WeatherCatV1.15B25,2013-09-22 19:00:00,
2013-09-22 15:05:00,68.1,50.3,29.67,NW,325,2.0,3.0,53,0.00,,,0.00,WeatherCatV1.15B25,2013-09-22 19:05:00,
2013-09-22 15:10:00,68.0,49.7,29.67,NW,314,2.0,7.0,52,0.00,,,0.00,WeatherCatV1.15B25,2013-09-22 19:10:00,
2013-09-22 15:15:00,68.0,50.2,29.67,SE,126,1.0,4.0,53,0.00,,,0.00,WeatherCatV1.15B25,2013-09-22 19:15:00,
2013-09-22 15:20:00,68.4,50.6,29.67,ENE,68,2.0,8.0,53,0.00,,,0.00,WeatherCatV1.15B25,2013-09-22 19:20:00,
2013-09-22 15:25:00,68.8,49.9,29.67,WNW,290,3.0,6.0,51,0.00,,,0.00,WeatherCatV1.15B25,2013-09-22 19:25:00,
2013-09-22 15:30:00,68.7,49.3,29.67,NW,314,5.0,10.0,50,0.00,,,0.00,WeatherCatV1.15B25,2013-09-22 19:30:00,
2013-09-22 15:35:00,68.3,49.5,29.67,WNW,297,3.0,7.0,51,0.00,,,0.00,WeatherCatV1.15B25,2013-09-22 19:35:00,
2013-09-22 15:40:00,68.3,49.5,29.67,WNW,282,2.0,4.0,51,0.00,,,0.00,WeatherCatV1.15B25,2013-09-22 19:40:00,
2013-09-22 15:45:00,68.3,49.5,29.67,WNW,285,4.0,9.0,51,0.00,,,0.00,WeatherCatV1.15B25,2013-09-22 19:45:00,
2013-09-22 15:50:00,68.4,50.1,29.67,NW,305,1.0,8.0,52,0.00,,,0.00,WeatherCatV1.15B25,2013-09-22 19:50:00,
2013-09-22 15:55:00,68.3,50.0,29.67,NW,314,5.0,6.0,52,0.00,,,0.00,WeatherCatV1.15B25,2013-09-22 19:55:00,
2013-09-22 16:00:00,68.6,50.3,29.67,WNW,297,1.0,2.0,52,0.00,,,0.00,WeatherCatV1.15B25,2013-09-22 20:00:00,
2013-09-22 16:05:00,68.8,49.9,29.67,NW,321,2.0,7.0,51,0.00,,,0.00,WeatherCatV1.15B25,2013-09-22 20:05:00,
2013-09-22 16:10:00,68.7,48.8,29.67,West,281,3.0,9.0,49,0.00,,,0.00,WeatherCatV1.15B25,2013-09-22 20:10:00,
2013-09-22 16:15:00,68.5,49.1,29.68,NW,324,0.0,4.0,50,0.00,,,0.00,WeatherCatV1.15B25,2013-09-22 20:15:00,
2013-09-22 16:20:00,68.5,48.0,29.68,NW,323,2.0,5.0,48,0.00,,,0.00,WeatherCatV1.15B25,2013-09-22 20:20:00,
2013-09-22 16:25:00,68.4,49.6,29.68,WSW,252,1.0,5.0,51,0.00,,,0.00,WeatherCatV1.15B25,2013-09-22 20:25:00,
2013-09-22 16:30:00,68.4,49.6,29.68,NW,308,4.0,9.0,51,0.00,,,0.00,WeatherCatV1.15B25,2013-09-22 20:30:00,
2013-09-22 16:35:00,68.4,49.6,29.68,WNW,294,4.0,4.0,51,0.00,,,0.00,WeatherCatV1.15B25,2013-09-22 20:35:00,
2013-09-22 16:40:00,67.8,48.5,29.68,WNW,299,8.0,10.0,50,0.00,,,0.00,WeatherCatV1.15B25,2013-09-22 20:40:00,
2013-09-22 16:45:00,67.7,49.9,29.68,NW,321,4.0,4.0,53,0.00,,,0.00,WeatherCatV1.15B25,2013-09-22 20:45:00,
2013-09-22 16:50:00,67.5,49.8,29.68,NNW,327,1.0,6.0,53,0.00,,,0.00,WeatherCatV1.15B25,2013-09-22 20:50:00,
2013-09-22 16:55:00,67.2,50.0,29.68,WNW,293,4.0,5.0,54,0.00,,,0.00,WeatherCatV1.15B25,2013-09-22 20:55:00,
2013-09-22 17:00:00,66.9,50.2,29.68,West,279,2.0,7.0,55,0.00,,,0.00,WeatherCatV1.15B25,2013-09-22 21:00:00,
2013-09-22 17:05:00,66.8,50.6,29.68,WNW,292,6.0,7.0,56,0.00,,,0.00,WeatherCatV1.15B25,2013-09-22 21:05:00,
2013-09-22 17:10:00,67.0,50.3,29.68,NNW,345,4.0,6.0,55,0.00,,,0.00,WeatherCatV1.15B25,2013-09-22 21:10:00,
2013-09-22 17:15:00,67.2,50.5,29.69,NW,305,4.0,4.0,55,0.00,,,0.00,WeatherCatV1.15B25,2013-09-22 21:15:00,
2013-09-22 17:20:00,67.0,50.3,29.69,NNE,23,0.0,7.0,55,0.00,,,0.00,WeatherCatV1.15B25,2013-09-22 21:20:00,
2013-09-22 17:25:00,66.7,50.5,29.69,NW,316,3.0,4.0,56,0.00,,,0.00,WeatherCatV1.15B25,2013-09-22 21:25:00,
2013-09-22 17:30:00,66.5,50.8,29.69,West,272,0.0,2.0,57,0.00,,,0.00,WeatherCatV1.15B25,2013-09-22 21:30:00,
2013-09-22 17:35:00,66.3,50.6,29.69,WSW,239,5.0,7.0,57,0.00,,,0.00,WeatherCatV1.15B25,2013-09-22 21:35:00,
2013-09-22 17:40:00,66.2,50.5,29.69,NW,304,4.0,5.0,57,0.00,,,0.00,WeatherCatV1.15B25,2013-09-22 21:40:00,
2013-09-22 17:45:00,66.1,50.9,29.70,NNE,26,6.0,9.0,58,0.00,,,0.00,WeatherCatV1.15B25,2013-09-22 21:45:00,
2013-09-22 17:50:00,65.7,51.0,29.70,WNW,295,4.0,7.0,59,0.00,,,0.00,WeatherCatV1.15B25,2013-09-22 21:50:00,
2013-09-22 17:55:00,65.3,50.6,29.70,WNW,301,2.0,3.0,59,0.00,,,0.00,WeatherCatV1.15B25,2013-09-22 21:55:00,
2013-09-22 18:00:00,65.0,50.3,29.70,NW,322,9.0,9.0,59,0.00,,,0.00,WeatherCatV1.15B25,2013-09-22 22:00:00,
2013-09-22 18:05:00,64.6,49.5,29.71,WNW,285,4.0,11.0,58,0.00,,,0.00,WeatherCatV1.15B25,2013-09-22 22:05:00,
2013-09-22 18:10:00,64.4,48.8,29.71,NW,304,3.0,6.0,57,0.00,,,0.00,WeatherCatV1.15B25,2013-09-22 22:10:00,
2013-09-22 18:15:00,64.3,48.3,29.71,NW,311,1.0,6.0,56,0.00,,,0.00,WeatherCatV1.15B25,2013-09-22 22:15:00,
2013-09-22 18:20:00,64.0,48.9,29.71,WNW,295,1.0,7.0,58,0.00,,,0.00,WeatherCatV1.15B25,2013-09-22 22:20:00,
2013-09-22 18:25:00,63.7,49.1,29.72,WSW,237,3.0,3.0,59,0.00,,,0.00,WeatherCatV1.15B25,2013-09-22 22:25:00,
2013-09-22 18:30:00,63.4,48.8,29.72,NNE,16,3.0,7.0,59,0.00,,,0.00,WeatherCatV1.15B25,2013-09-22 22:30:00,
2013-09-22 18:35:00,63.0,48.4,29.72,NW,323,4.0,6.0,59,0.00,,,0.00,WeatherCatV1.15B25,2013-09-22 22:35:00,
2013-09-22 18:40:00,62.7,48.6,29.72,NW,319,1.0,6.0,60,0.00,,,0.00,WeatherCatV1.15B25,2013-09-22 22:40:00,
2013-09-22 18:45:00,62.4,48.8,29.72,NW,310,3.0,6.0,61,0.00,,,0.00,WeatherCatV1.15B25,2013-09-22 22:45:00,
2013-09-22 18:50:00,62.2,49.4,29.72,NW,320,1.0,2.0,63,0.00,,,0.00,WeatherCatV1.15B25,2013-09-22 22:50:00,
2013-09-22 18:55:00,62.0,49.7,29.73,NNE,13,1.0,4.0,64,0.00,,,0.00,WeatherCatV1.15B25,2013-09-22 22:55:00,
2013-09-22 19:00:00,61.9,50.0,29.73,NW,307,2.0,6.0,65,0.00,,,0.00,WeatherCatV1.15B25,2013-09-22 23:00:00,
2013-09-22 19:05:00,61.7,49.8,29.73,West,276,4.0,6.0,65,0.00,,,0.00,WeatherCatV1.15B25,2013-09-22 23:05:00,
2013-09-22 19:10:00,61.6,50.1,29.73,NW,325,2.0,3.0,66,0.00,,,0.00,WeatherCatV1.15B25,2013-09-22 23:10:00,
2013-09-22 19:15:00,61.4,49.9,29.74,WNW,293,3.0,6.0,66,0.00,,,0.00,WeatherCatV1.15B25,2013-09-22 23:15:00,
2013-09-22 19:20:00,61.2,49.3,29.74,NW,314,3.0,4.0,65,0.00,,,0.00,WeatherCatV1.15B25,2013-09-22 23:20:00,
2013-09-22 19:25:00,61.1,48.8,29.74,NNW,337,2.0,6.0,64,0.00,,,0.00,WeatherCatV1.15B25,2013-09-22 23:25:00,
2013-09-22 19:30:00,60.9,48.6,29.75,West,278,1.0,3.0,64,0.00,,,0.00,WeatherCatV1.15B25,2013-09-22 23:30:00,
2013-09-22 19:35:00,60.7,49.3,29.75,NNE,20,1.0,2.0,66,0.00,,,0.00,WeatherCatV1.15B25,2013-09-22 23:35:00,
2013-09-22 19:40:00,60.5,49.9,29.75,NW,313,1.0,2.0,68,0.00,,,0.00,WeatherCatV1.15B25,2013-09-22 23:40:00,
2013-09-22 19:45:00,60.3,50.1,29.76,NW,305,0.0,1.0,69,0.00,,,0.00,WeatherCatV1.15B25,2013-09-22 23:45:00,
2013-09-22 19:50:00,60.1,50.3,29.76,WNW,296,2.0,5.0,70,0.00,,,0.00,WeatherCatV1.15B25,2013-09-22 23:50:00,
2013-09-22 19:55:00,59.8,50.4,29.76,North,8,0.0,2.0,71,0.00,,,0.00,WeatherCatV1.15B25,2013-09-22 23:55:00,
2013-09-22 20:00:00,59.5,50.1,29.77,NNW,340,1.0,5.0,71,0.00,,,0.00,WeatherCatV1.15B25,2013-09-23 00:00:00,
2013-09-22 20:05:00,59.3,50.3,29.77,West,279,1.0,2.0,72,0.00,,,0.00,WeatherCatV1.15B25,2013-09-23 00:05:00,
2013-09-22 20:10:00,59.2,50.5,29.77,NW,323,1.0,1.0,73,0.00,,,0.00,WeatherCatV1.15B25,2013-09-23 00:10:00,
2013-09-22 20:15:00,59.1,50.5,29.77,NNW,329,0.0,1.0,73,0.00,,,0.00,WeatherCatV1.15B25,2013-09-23 00:15:00,
2013-09-22 20:20:00,59.0,50.0,29.78,NW,323,4.0,4.0,72,0.00,,,0.00,WeatherCatV1.15B25,2013-09-23 00:20:00,
2013-09-22 20:25:00,58.8,50.2,29.78,NNW,328,1.0,4.0,73,0.00,,,0.00,WeatherCatV1.15B25,2013-09-23 00:25:00,
2013-09-22 20:30:00,58.6,50.0,29.78,NNW,327,2.0,2.0,73,0.00,,,0.00,WeatherCatV1.15B25,2013-09-23 00:30:00,
2013-09-22 20:35:00,58.4,49.8,29.78,NNW,344,2.0,5.0,73,0.00,,,0.00,WeatherCatV1.15B25,2013-09-23 00:35:00,
2013-09-22 20:40:00,58.2,49.6,29.79,WNW,288,1.0,5.0,73,0.00,,,0.00,WeatherCatV1.15B25,2013-09-23 00:40:00,
2013-09-22 20:45:00,58.0,49.4,29.79,NW,319,1.0,4.0,73,0.00,,,0.00,WeatherCatV1.15B25,2013-09-23 00:45:00,
2013-09-22 20:50:00,57.8,48.8,29.79,NNE,19,1.0,6.0,72,0.00,,,0.00,WeatherCatV1.15B25,2013-09-23 00:50:00,
2013-09-22 20:55:00,57.6,48.6,29.79,NE,46,2.0,6.0,72,0.00,,,0.00,WeatherCatV1.15B25,2013-09-23 00:55:00,
2013-09-22 21:00:00,57.5,48.5,29.80,WNW,289,4.0,5.0,72,0.00,,,0.00,WeatherCatV1.15B25,2013-09-23 01:00:00,
2013-09-22 21:05:00,57.3,48.3,29.80,NW,304,0.0,4.0,72,0.00,,,0.00,WeatherCatV1.15B25,2013-09-23 01:05:00,
2013-09-22 21:10:00,57.1,48.2,29.80,WNW,285,3.0,5.0,72,0.00,,,0.00,WeatherCatV1.15B25,2013-09-23 01:10:00,
2013-09-22 21:15:00,56.9,48.3,29.80,NE,51,1.0,3.0,73,0.00,,,0.00,WeatherCatV1.15B25,2013-09-23 01:15:00,
2013-09-22 21:20:00,56.7,48.1,29.80,West,269,3.0,3.0,73,0.00,,,0.00,WeatherCatV1.15B25,2013-09-23 01:20:00,
2013-09-22 21:25:00,56.5,48.3,29.80,WNW,295,1.0,2.0,74,0.00,,,0.00,WeatherCatV1.15B25,2013-09-23 01:25:00,
2013-09-22 21:30:00,56.3,48.1,29.80,WNW,293,1.0,1.0,74,0.00,,,0.00,WeatherCatV1.15B25,2013-09-23 01:30:00,
2013-09-22 21:35:00,56.2,48.0,29.80,NNW,330,2.0,3.0,74,0.00,,,0.00,WeatherCatV1.15B25,2013-09-23 01:35:00,
2013-09-22 21:40:00,56.2,48.0,29.80,West,280,0.0,2.0,74,0.00,,,0.00,WeatherCatV1.15B25,2013-09-23 01:40:00,
2013-09-22 21:45:00,56.0,47.8,29.80,WNW,288,0.0,1.0,74,0.00,,,0.00,WeatherCatV1.15B25,2013-09-23 01:45:00,
2013-09-22 21:50:00,56.0,47.8,29.81,NW,319,0.0,1.0,74,0.00,,,0.00,WeatherCatV1.15B25,2013-09-23 01:50:00,
2013-09-22 21:55:00,55.9,47.7,29.81,WNW,285,0.0,3.0,74,0.00,,,0.00,WeatherCatV1.15B25,2013-09-23 01:55:00,
2013-09-22 22:00:00,55.8,47.6,29.81,WNW,285,1.0,1.0,74,0.00,,,0.00,WeatherCatV1.15B25,2013-09-23 02:00:00,
2013-09-22 22:05:00,55.6,47.8,29.81,WNW,302,0.0,1.0,75,0.00,,,0.00,WeatherCatV1.15B25,2013-09-23 02:05:00,
2013-09-22 22:10:00,55.4,47.6,29.81,WNW,285,0.0,2.0,75,0.00,,,0.00,WeatherCatV1.15B25,2013-09-23 02:10:00,
2013-09-22 22:15:00,55.3,47.9,29.81,North,354,0.0,1.0,76,0.00,,,0.00,WeatherCatV1.15B25,2013-09-23 02:15:00,
2013-09-22 22:20:00,55.2,47.4,29.82,NNE,27,1.0,2.0,75,0.00,,,0.00,WeatherCatV1.15B25,2013-09-23 02:20:00,
2013-09-22 22:25:00,55.1,47.3,29.82,NNE,32,1.0,4.0,75,0.00,,,0.00,WeatherCatV1.15B25,2013-09-23 02:25:00,
2013-09-22 22:30:00,55.1,47.3,29.82,NW,309,0.0,1.0,75,0.00,,,0.00,WeatherCatV1.15B25,2013-09-23 02:30:00,
2013-09-22 22:35:00,55.0,47.6,29.82,North,352,0.0,0.0,76,0.00,,,0.00,WeatherCatV1.15B25,2013-09-23 02:35:00,
2013-09-22 22:40:00,54.9,47.5,29.82,NW,323,0.0,0.0,76,0.00,,,0.00,WeatherCatV1.15B25,2013-09-23 02:40:00,
2013-09-22 22:45:00,54.7,46.9,29.82,NW,323,0.0,0.0,75,0.00,,,0.00,WeatherCatV1.15B25,2013-09-23 02:45:00,
2013-09-22 22:50:00,54.6,46.8,29.83,NNE,25,1.0,4.0,75,0.00,,,0.00,WeatherCatV1.15B25,2013-09-23 02:50:00,
2013-09-22 22:55:00,54.6,46.8,29.83,WNW,284,0.0,3.0,75,0.00,,,0.00,WeatherCatV1.15B25,2013-09-23 02:55:00,
2013-09-22 23:00:00,54.5,47.1,29.83,NW,321,0.0,2.0,76,0.00,,,0.00,WeatherCatV1.15B25,2013-09-23 03:00:00,
2013-09-22 23:05:00,54.4,46.6,29.83,WNW,302,2.0,5.0,75,0.00,,,0.00,WeatherCatV1.15B25,2013-09-23 03:05:00,
2013-09-22 23:10:00,54.4,46.3,29.83,SW,236,2.0,3.0,74,0.00,,,0.00,WeatherCatV1.15B25,2013-09-23 03:10:00,
2013-09-22 23:15:00,54.4,45.9,29.83,WNW,287,1.0,5.0,73,0.00,,,0.00,WeatherCatV1.15B25,2013-09-23 03:15:00,
2013-09-22 23:20:00,54.3,45.5,29.83,NNW,347,2.0,4.0,72,0.00,,,0.00,WeatherCatV1.15B25,2013-09-23 03:20:00,
2013-09-22 23:25:00,54.2,45.4,29.83,WNW,293,1.0,6.0,72,0.00,,,0.00,WeatherCatV1.15B25,2013-09-23 03:25:00,
2013-09-22 23:30:00,54.1,44.5,29.83,NW,321,3.0,7.0,70,0.00,,,0.00,WeatherCatV1.15B25,2013-09-23 03:30:00,
2013-09-22 23:35:00,54.1,44.2,29.83,WNW,286,1.0,5.0,69,0.00,,,0.00,WeatherCatV1.15B25,2013-09-23 03:35:00,
2013-09-22 23:40:00,54.0,44.1,29.83,North,6,1.0,5.0,69,0.00,,,0.00,WeatherCatV1.15B25,2013-09-23 03:40:00,
2013-09-22 23:45:00,53.9,44.0,29.84,NNW,328,1.0,3.0,69,0.00,,,0.00,WeatherCatV1.15B25,2013-09-23 03:45:00,
2013-09-22 23:50:00,53.7,43.8,29.84,West,268,1.0,3.0,69,0.00,,,0.00,WeatherCatV1.15B25,2013-09-23 03:50:00,
2013-09-22 23:55:00,53.6,44.1,29.84,NW,307,0.0,1.0,70,0.00,,,0.00,WeatherCatV1.15B25,2013-09-23 03:55:00,